Погода в Обручевке

Россия / Челябинская область     52°45′58″N   59°12′42″E
В апреле 2022 года жителям России запретили посещать сайт meteo.paraplan.net по решению Генеральной прокуратуры. Аудитория сайта уменьшилась в 10 раз. Владельцы сайта не видят смысла в поддержке погодного сервера в таких условиях. Сайт будет закрыт в октябре.
темп.,
°C
ветер,
м/с
пор.,
м/с
влажн.,
%
обл.,
%
осадки,
мм/ч
давл.,
гПа
погр.,
м
5 октября, ср
ср523:00+6ююв334191 0.0 103642
02:00+4ю224496 0.0 103621
05:00+3ю234974 0.0 103725
08:00+3ю2350100 0.0 103745
11:00+8ю4834100 0.0 1035401
14:00+11ююз5827100 0.0 1034715
17:00+11ююз4732100 0.0 1033297
20:00+8ююв2238100 0.0 103220
6 октября, чт
чт623:00+8ю3439100 0.0 103159
02:00+7ю3938100 0.0 1030166
05:00+7ю3838100 0.0 1028132
08:00+7ю3938100 0.0 1027173
11:00+11ю51130100 0.0 1025426
14:00+13ююз71125100 0.0 1023797
17:00+14ююз51028100 0.0 1021372
20:00+11ююз41235100 0.0 1021403
7 октября, пт
пт723:00+10ююз3763100 0.4 1020229
02:00+9ююз51163100 0.0 1019425
05:00+8ю4880100 0.4 1018367
08:00+9ююз488498 0.0 1017421
11:00+11зюз356681 0.0 1016791
14:00+10зюз457087 0.5 1015770
17:00+10зсз676493 0.8 1014842
20:00+9зсз596499 0.0 1016630
8 октября, сб
сб823:00+7зсз49695 0.0 1016558
02:00+6зюз5975100 0.1 1015718
05:00+7зюз6107690 0.3 1014694
08:00+7з498097 0.1 1014608
11:00+10зсз8106397 0.1 10141371
14:00+9зсз9126996 0.1 10161268
17:00+10зсз8126557 0.2 10181376
20:00+7зсз6127667 0.0 1021696
9 октября, вс
вс923:00+8сз71064100 0.0 10221050
02:00+8сз61059100 0.0 1023633
05:00+5зсз49785 0.0 1025213
08:00+5з38805 0.0 1027218
11:00+9з47615 0.0 1027649
14:00+13з57445 0.0 10261314
17:00+13зсз57485 0.0 10261155
20:00+9з48665 0.0 1027145